| time (UTC) | temp C | wind direction | speed KPH | gust KPH | rain 1hr cm | rain 24hr cm | rain mn cm | humidity % | barometer mb |
| 20260502194548 | 23 | 90 | 6.4 | 6.4 | 0.00 | 0.00 | 0.00 | 38 | 1027.4 |
| 20260502192545 | 24 | 120 | 8.0 | 8.0 | 0.00 | 0.00 | 0.00 | 36 | 1027.4 |
| 20260502190541 | 24 | 52 | 8.0 | 9.7 | 0.00 | 0.00 | 0.00 | 35 | 1027.9 |
| 20260502184537 | 25 | 336 | 8.0 | 9.7 | 0.00 | 0.00 | 0.00 | 33 | 1027.9 |
| 20260502182533 | 24 | 264 | 6.4 | 6.4 | 0.00 | 0.00 | 0.00 | 33 | 1028.3 |
| 20260502180528 | 25 | 259 | 6.4 | 8.0 | 0.00 | 0.00 | 0.00 | 30 | 1028.3 |
| 20260502162518 | 21 | 306 | 4.8 | 4.8 | 0.00 | 0.00 | 0.00 | 43 | 1029.9 |
| 20260502160518 | 20 | 246 | 8.0 | 9.7 | 0.00 | 0.00 | 0.00 | 44 | 1030.4 |
| 20260502150438 | 17 | 312 | 0.0 | 0.0 | 0.00 | 0.00 | 0.00 | 60 | 1030.8 |
| 20260502130427 | 11 | 194 | 3.2 | 3.2 | 0.00 | 0.00 | 0.00 | 79 | 1029.9 |
| 20260502122427 | 8 | 198 | 3.2 | 3.2 | 0.00 | 0.00 | 0.00 | 88 | 1029.2 |
| 20260502120427 | 9 | 198 | 3.2 | 3.2 | 0.00 | 0.00 | 0.00 | 89 | 1029.2 |
| 20260502114426 | 9 | 198 | 4.8 | 4.8 | 0.00 | 0.00 | 0.00 | 86 | 1029.2 |
| 20260502112422 | 8 | 198 | 0.0 | 0.0 | 0.00 | 0.00 | 0.00 | 88 | 1028.7 |
| 20260502110417 | 10 | 198 | 0.0 | 0.0 | 0.00 | 0.00 | 0.00 | 86 | 1029.2 |
| 20260502104412 | 10 | 198 | 4.8 | 4.8 | 0.00 | 0.00 | 0.00 | 83 | 1028.7 |
| 20260502102411 | 10 | 198 | 3.2 | 3.2 | 0.00 | 0.00 | 0.00 | 82 | 1028.3 |
| 20260502100410 | 10 | 198 | 0.0 | 0.0 | 0.00 | 0.00 | 0.00 | 86 | 1028.3 |
| 20260502090401 | 11 | 198 | 0.0 | 0.0 | 0.00 | 0.00 | 0.00 | 86 | 1028.3 |
| 20260502070344 | 11 | 312 | 3.2 | 3.2 | 0.00 | 0.00 | 0.00 | 90 | 1029.2 |
| 20260502064342 | 12 | 312 | 3.2 | 3.2 | 0.00 | 0.00 | 0.00 | 93 | 1029.5 |
| 20260502062342 | 12 | 312 | 0.0 | 0.0 | 0.00 | 0.00 | 0.00 | 93 | 1029.5 |
| 20260502060341 | 12 | 312 | 0.0 | 0.0 | 0.00 | 0.00 | 0.00 | 92 | 1029.5 |
| 20260502054339 | 12 | 312 | 4.8 | 4.8 | 0.00 | 0.00 | 0.00 | 92 | 1029.9 |
| 20260502052335 | 12 | 312 | 0.0 | 0.0 | 0.00 | 0.00 | 0.00 | 91 | 1029.9 |
| 20260502050335 | 13 | 312 | 3.2 | 3.2 | 0.00 | 0.00 | 0.00 | 90 | 1030.4 |
| 20260502044333 | 13 | 318 | 3.2 | 3.2 | 0.00 | 0.00 | 0.00 | 87 | 1030.4 |
| 20260502042331 | 14 | 282 | 1.6 | 1.6 | 0.00 | 0.00 | 0.00 | 86 | 1030.4 |
| 20260502040326 | 14 | 210 | 0.0 | 0.0 | 0.00 | 0.00 | 0.00 | 87 | 1030.4 |
| 20260502034326 | 14 | 198 | 3.2 | 3.2 | 0.00 | 0.00 | 0.00 | 86 | 1029.5 |
| 20260502032326 | 15 | 168 | 0.0 | 0.0 | 0.00 | 0.00 | 0.00 | 84 | 1029.5 |
| 20260502030323 | 15 | 168 | 3.2 | 3.2 | 0.00 | 0.00 | 0.00 | 79 | 1028.7 |
| 20260502024319 | 15 | 144 | 3.2 | 3.2 | 0.00 | 0.00 | 0.00 | 77 | 1028.7 |
| 20260502022314 | 15 | 144 | 3.2 | 3.2 | 0.00 | 0.00 | 0.00 | 76 | 1028.7 |
| 20260502020315 | 15 | 126 | 6.4 | 6.4 | 0.00 | 0.00 | 0.00 | 76 | 1028.3 |
| 20260502014314 | 15 | 156 | 3.2 | 3.2 | 0.00 | 0.00 | 0.00 | 76 | 1028.3 |
| 20260502012312 | 16 | 102 | 1.6 | 1.6 | 0.00 | 0.00 | 0.00 | 76 | 1027.4 |
| 20260502010311 | 16 | 162 | 3.2 | 3.2 | 0.00 | 0.00 | 0.00 | 75 | 1027.0 |
| 20260502004310 | 16 | 96 | 8.0 | 9.7 | 0.00 | 0.00 | 0.00 | 74 | 1027.0 |
| 20260502002310 | 17 | 114 | 8.0 | 9.7 | 0.00 | 0.00 | 0.00 | 70 | 1026.5 |
| 20260502000306 | 17 | 96 | 6.4 | 6.4 | 0.00 | 0.00 | 0.00 | 67 | 1026.1 |
| 20260501234302 | 18 | 120 | 6.4 | 6.4 | 0.00 | 0.00 | 0.00 | 67 | 1026.1 |
| 20260501232305 | 18 | 138 | 9.7 | 9.7 | 0.00 | 0.00 | 0.00 | 64 | 1025.7 |
| 20260501230300 | 19 | 132 | 9.7 | 9.7 | 0.00 | 0.00 | 0.00 | 62 | 1025.2 |
| 20260501224300 | 19 | 132 | 11.3 | 11.3 | 0.00 | 0.00 | 0.00 | 62 | 1025.2 |
| 20260501222258 | 20 | 120 | 8.0 | 8.0 | 0.00 | 0.00 | 0.00 | 59 | 1024.8 |
| 20260501220258 | 20 | 138 | 12.9 | 12.9 | 0.00 | 0.00 | 0.00 | 58 | 1024.8 |
| 20260501214258 | 20 | 72 | 8.0 | 9.7 | 0.00 | 0.00 | 0.00 | 54 | 1024.8 |
| 20260501212255 | 21 | 108 | 6.4 | 6.4 | 0.00 | 0.00 | 0.00 | 51 | 1024.8 |
| 20260501210255 | 21 | 96 | 8.0 | 9.7 | 0.00 | 0.00 | 0.00 | 48 | 1024.8 |
| 20260501204254 | 21 | 72 | 11.3 | 11.3 | 0.00 | 0.00 | 0.00 | 46 | 1025.2 |
| 20260501202253 | 22 | 168 | 3.2 | 3.2 | 0.00 | 0.00 | 0.00 | 49 | 1025.2 |